contact:dominique.lefevre@mio.osupytheas.fr, maurice.libes@osupytheas.fr, didier.mallarino@osupytheas.fr
Project:EMSO http://www.emso-fr.org/EMSO-France
Depth: 2436.0 m
Title:EMSO Ligure Ouest : Data MII capteur MICROCAT
DateTime_Computer,Latitude,Longitude,Temperature,Conductivity,Pressure,DateTime_Instrument
DateTime_Computer,Latitude,Longitude,degC,S m-1,dbar,DateTime_Instrument
2019-12-01T00:02:54Z,42.805,6.029,13.3015,4.60004,2470.017,2019-12-01T02:03:23Z
2019-12-01T00:05:58Z,42.805,6.029,13.3006,4.60005,2470.007,2019-12-01T02:06:27Z
2019-12-01T00:09:01Z,42.805,6.029,13.3001,4.60018,2470.03,2019-12-01T02:09:30Z
2019-12-01T00:12:04Z,42.805,6.029,13.3016,4.60013,2469.993,2019-12-01T02:12:33Z
2019-12-01T00:15:07Z,42.805,6.029,13.3027,4.60009,2469.993,2019-12-01T02:15:36Z
2019-12-01T00:18:10Z,42.805,6.029,13.3028,4.60003,2469.993,2019-12-01T02:18:39Z
2019-12-01T00:21:13Z,42.805,6.029,13.3008,4.60013,2469.984,2019-12-01T02:21:42Z
2019-12-01T00:24:17Z,42.805,6.029,13.3006,4.60003,2470.007,2019-12-01T02:24:46Z
2019-12-01T00:27:20Z,42.805,6.029,13.3009,4.60003,2469.947,2019-12-01T02:27:49Z
2019-12-01T00:30:23Z,42.805,6.029,13.3011,4.60000,2469.97,2019-12-01T02:30:52Z
2019-12-01T00:33:26Z,42.805,6.029,13.3015,4.60009,2469.97,2019-12-01T02:33:55Z
2019-12-01T00:36:29Z,42.805,6.029,13.3003,4.60005,2469.96,2019-12-01T02:36:58Z
2019-12-01T00:39:33Z,42.805,6.029,13.3026,4.60026,2469.979,2019-12-01T02:40:02Z
2019-12-01T00:42:36Z,42.805,6.029,13.3017,4.60009,2469.97,2019-12-01T02:43:05Z
2019-12-01T00:45:39Z,42.805,6.029,13.3009,4.60002,2469.96,2019-12-01T02:46:08Z
2019-12-01T00:48:42Z,42.805,6.029,13.3028,4.60011,2469.947,2019-12-01T02:49:11Z
2019-12-01T00:51:45Z,42.805,6.029,13.3007,4.60019,2469.97,2019-12-01T02:52:14Z
2019-12-01T00:54:49Z,42.805,6.029,13.3029,4.60003,2469.993,2019-12-01T02:55:18Z
2019-12-01T00:57:52Z,42.805,6.029,13.3015,4.60007,2469.993,2019-12-01T02:58:21Z
2019-12-01T01:00:55Z,42.805,6.029,13.3023,4.60014,2469.97,2019-12-01T03:01:24Z
2019-12-01T01:03:58Z,42.805,6.029,13.3022,4.60012,2469.96,2019-12-01T03:04:27Z
2019-12-01T01:07:01Z,42.805,6.029,13.3010,4.60004,2469.96,2019-12-01T03:07:30Z
2019-12-01T01:10:04Z,42.805,6.029,13.3023,4.60000,2469.947,2019-12-01T03:10:33Z
2019-12-01T01:13:08Z,42.805,6.029,13.3015,4.60008,2469.97,2019-12-01T03:13:37Z
2019-12-01T01:16:11Z,42.805,6.029,13.3017,4.60009,2469.923,2019-12-01T03:16:40Z
2019-12-01T01:19:14Z,42.805,6.029,13.3010,4.60001,2469.96,2019-12-01T03:19:43Z
2019-12-01T01:22:17Z,42.805,6.029,13.3006,4.60012,2469.947,2019-12-01T03:22:46Z
2019-12-01T01:25:20Z,42.805,6.029,13.3011,4.60003,2469.947,2019-12-01T03:25:49Z
2019-12-01T01:28:24Z,42.805,6.029,13.3011,4.59999,2469.96,2019-12-01T03:28:53Z
2019-12-01T01:31:27Z,42.805,6.029,13.3011,4.60009,2469.96,2019-12-01T03:31:56Z
2019-12-01T01:34:30Z,42.805,6.029,13.3016,4.60004,2469.984,2019-12-01T03:34:59Z
2019-12-01T01:37:33Z,42.805,6.029,13.3011,4.60005,2469.937,2019-12-01T03:38:02Z
2019-12-01T01:40:37Z,42.805,6.029,13.2997,4.60007,2469.947,2019-12-01T03:41:06Z
2019-12-01T01:43:40Z,42.805,6.029,13.3014,4.60007,2469.937,2019-12-01T03:44:09Z
2019-12-01T01:46:43Z,42.805,6.029,13.3007,4.59994,2469.96,2019-12-01T03:47:12Z
2019-12-01T01:49:46Z,42.805,6.029,13.3017,4.60002,2469.923,2019-12-01T03:50:15Z
2019-12-01T01:52:49Z,42.805,6.029,13.3009,4.60004,2469.984,2019-12-01T03:53:18Z
2019-12-01T01:55:53Z,42.805,6.029,13.3019,4.59996,2469.96,2019-12-01T03:56:22Z
2019-12-01T01:58:56Z,42.805,6.029,13.3039,4.59994,2469.984,2019-12-01T03:59:25Z
2019-12-01T02:01:59Z,42.805,6.029,13.3007,4.60003,2469.96,2019-12-01T04:02:28Z
2019-12-01T02:05:02Z,42.805,6.029,13.3001,4.60009,2469.96,2019-12-01T04:05:31Z
2019-12-01T02:08:05Z,42.805,6.029,13.3005,4.60003,2469.96,2019-12-01T04:08:34Z
2019-12-01T02:11:08Z,42.805,6.029,13.3004,4.60004,2469.97,2019-12-01T04:11:37Z
2019-12-01T02:14:12Z,42.805,6.029,13.3044,4.60009,2469.9,2019-12-01T04:14:41Z
2019-12-01T02:17:15Z,42.805,6.029,13.3029,4.60008,2469.96,2019-12-01T04:17:44Z
2019-12-01T02:20:18Z,42.805,6.029,13.3034,4.60005,2469.947,2019-12-01T04:20:47Z
2019-12-01T02:23:21Z,42.805,6.029,13.3050,4.60001,2469.96,2019-12-01T04:23:50Z
2019-12-01T02:26:25Z,42.805,6.029,13.3034,4.60010,2469.96,2019-12-01T04:26:54Z
2019-12-01T02:29:28Z,42.805,6.029,13.3030,4.60001,2469.947,2019-12-01T04:29:57Z
2019-12-01T02:32:31Z,42.805,6.029,13.3014,4.60016,2469.947,2019-12-01T04:33:00Z
2019-12-01T02:35:34Z,42.805,6.029,13.3031,4.60013,2469.96,2019-12-01T04:36:03Z
2019-12-01T02:38:37Z,42.805,6.029,13.3014,4.60010,2469.96,2019-12-01T04:39:06Z
2019-12-01T02:41:40Z,42.805,6.029,13.3015,4.60009,2469.937,2019-12-01T04:42:09Z
2019-12-01T02:44:44Z,42.805,6.029,13.3010,4.60021,2469.96,2019-12-01T04:45:13Z
2019-12-01T02:47:47Z,42.805,6.029,13.3013,4.60003,2469.937,2019-12-01T04:48:16Z
2019-12-01T02:50:50Z,42.805,6.029,13.3006,4.59999,2469.937,2019-12-01T04:51:19Z
2019-12-01T02:53:53Z,42.805,6.029,13.3006,4.59997,2469.937,2019-12-01T04:54:22Z
2019-12-01T02:56:56Z,42.805,6.029,13.3010,4.60006,2469.923,2019-12-01T04:57:25Z
2019-12-01T03:00:00Z,42.805,6.029,13.3020,4.60019,2469.947,2019-12-01T05:00:29Z
2019-12-01T03:03:03Z,42.805,6.029,13.3019,4.59994,2469.937,2019-12-01T05:03:32Z
2019-12-01T03:06:06Z,42.805,6.029,13.3007,4.60010,2469.937,2019-12-01T05:06:35Z
2019-12-01T03:09:09Z,42.805,6.029,13.3009,4.60001,2469.937,2019-12-01T05:09:38Z
2019-12-01T03:12:12Z,42.805,6.029,13.3024,4.60002,2469.9,2019-12-01T05:12:41Z
2019-12-01T03:15:16Z,42.805,6.029,13.3009,4.60006,2469.96,2019-12-01T05:15:44Z
2019-12-01T03:18:19Z,42.805,6.029,13.3021,4.60010,2469.96,2019-12-01T05:18:48Z
2019-12-01T03:21:22Z,42.805,6.029,13.3009,4.60006,2469.96,2019-12-01T05:21:51Z
2019-12-01T03:24:25Z,42.805,6.029,13.3015,4.59999,2469.923,2019-12-01T05:24:54Z
2019-12-01T03:27:29Z,42.805,6.029,13.3008,4.60002,2469.923,2019-12-01T05:27:58Z
2019-12-01T03:30:32Z,42.805,6.029,13.3006,4.60011,2469.947,2019-12-01T05:31:01Z
2019-12-01T03:33:35Z,42.805,6.029,13.3009,4.60006,2469.951,2019-12-01T05:34:04Z
2019-12-01T03:36:38Z,42.805,6.029,13.3031,4.60005,2469.9,2019-12-01T05:37:07Z
2019-12-01T03:39:42Z,42.805,6.029,13.3011,4.59991,2469.914,2019-12-01T05:40:11Z
2019-12-01T03:42:45Z,42.805,6.029,13.3000,4.60009,2469.937,2019-12-01T05:43:14Z
2019-12-01T03:45:48Z,42.805,6.029,13.3015,4.60002,2469.937,2019-12-01T05:46:17Z
2019-12-01T03:48:51Z,42.805,6.029,13.3014,4.59992,2469.9,2019-12-01T05:49:20Z
2019-12-01T03:51:54Z,42.805,6.029,13.3013,4.59999,2469.947,2019-12-01T05:52:23Z
2019-12-01T03:54:58Z,42.805,6.029,13.2993,4.59996,2469.9,2019-12-01T05:55:27Z
2019-12-01T03:58:01Z,42.805,6.029,13.3012,4.59993,2469.9,2019-12-01T05:58:30Z
2019-12-01T04:01:04Z,42.805,6.029,13.3001,4.60015,2469.923,2019-12-01T06:01:33Z
2019-12-01T04:04:07Z,42.805,6.029,13.3036,4.60005,2469.914,2019-12-01T06:04:36Z
2019-12-01T04:07:10Z,42.805,6.029,13.3001,4.60005,2469.937,2019-12-01T06:07:39Z
2019-12-01T04:10:14Z,42.805,6.029,13.3032,4.59999,2469.947,2019-12-01T06:10:43Z
2019-12-01T04:13:17Z,42.805,6.029,13.2996,4.60015,2469.923,2019-12-01T06:13:46Z
2019-12-01T04:16:20Z,42.805,6.029,13.3015,4.60002,2469.937,2019-12-01T06:16:49Z
2019-12-01T04:19:23Z,42.805,6.029,13.3030,4.60008,2469.937,2019-12-01T06:19:52Z
2019-12-01T04:22:26Z,42.805,6.029,13.3022,4.60001,2469.947,2019-12-01T06:22:55Z
2019-12-01T04:25:30Z,42.805,6.029,13.3010,4.60013,2469.937,2019-12-01T06:25:59Z
2019-12-01T04:28:33Z,42.805,6.029,13.3004,4.59994,2469.923,2019-12-01T06:29:02Z
2019-12-01T04:31:36Z,42.805,6.029,13.2994,4.60017,2469.947,2019-12-01T06:32:05Z
2019-12-01T04:34:39Z,42.805,6.029,13.2994,4.60015,2469.937,2019-12-01T06:35:08Z
2019-12-01T04:37:42Z,42.805,6.029,13.3000,4.59994,2469.923,2019-12-01T06:38:11Z
2019-12-01T04:40:46Z,42.805,6.029,13.2997,4.60046,2469.933,2019-12-01T06:41:15Z
2019-12-01T04:43:49Z,42.805,6.029,13.3007,4.60024,2469.937,2019-12-01T06:44:18Z
2019-12-01T04:46:52Z,42.805,6.029,13.3011,4.60046,2469.937,2019-12-01T06:47:21Z
2019-12-01T04:49:56Z,42.805,6.029,13.2996,4.60009,2469.923,2019-12-01T06:50:25Z
2019-12-01T04:52:59Z,42.805,6.029,13.3000,4.60033,2469.923,2019-12-01T06:53:28Z
2019-12-01T04:56:02Z,42.805,6.029,13.3009,4.60021,2469.923,2019-12-01T06:56:31Z
2019-12-01T04:59:05Z,42.805,6.029,13.2991,4.60003,2469.937,2019-12-01T06:59:34Z
2019-12-01T05:02:08Z,42.805,6.029,13.3026,4.59993,2469.937,2019-12-01T07:02:37Z
2019-12-01T05:05:12Z,42.805,6.029,13.2991,4.60007,2469.914,2019-12-01T07:05:40Z
2019-12-01T05:08:15Z,42.805,6.029,13.2982,4.60003,2469.96,2019-12-01T07:08:44Z
2019-12-01T05:11:18Z,42.805,6.029,13.2998,4.60024,2469.937,2019-12-01T07:11:47Z
2019-12-01T05:14:21Z,42.805,6.029,13.3012,4.59990,2469.96,2019-12-01T07:14:50Z
2019-12-01T05:17:24Z,42.805,6.029,13.3006,4.60018,2469.96,2019-12-01T07:17:53Z
2019-12-01T05:20:28Z,42.805,6.029,13.3015,4.60009,2469.923,2019-12-01T07:20:57Z
2019-12-01T05:23:31Z,42.805,6.029,13.3006,4.59996,2469.97,2019-12-01T07:24:00Z
2019-12-01T05:26:34Z,42.805,6.029,13.3004,4.60009,2469.96,2019-12-01T07:27:03Z
2019-12-01T05:29:38Z,42.805,6.029,13.2996,4.60021,2469.947,2019-12-01T07:30:07Z
2019-12-01T05:32:41Z,42.805,6.029,13.3004,4.60014,2469.96,2019-12-01T07:33:10Z
2019-12-01T05:35:44Z,42.805,6.029,13.3004,4.60022,2469.947,2019-12-01T07:36:13Z
2019-12-01T05:38:47Z,42.805,6.029,13.2986,4.60026,2469.97,2019-12-01T07:39:16Z
2019-12-01T05:41:51Z,42.805,6.029,13.2989,4.60016,2469.96,2019-12-01T07:42:20Z
2019-12-01T05:44:54Z,42.805,6.029,13.2988,4.60035,2469.96,2019-12-01T07:45:23Z
2019-12-01T05:47:57Z,42.805,6.029,13.3006,4.60043,2469.96,2019-12-01T07:48:26Z
2019-12-01T05:51:00Z,42.805,6.029,13.3009,4.60036,2469.96,2019-12-01T07:51:29Z
2019-12-01T05:54:04Z,42.805,6.029,13.3033,4.60032,2469.96,2019-12-01T07:54:32Z
2019-12-01T05:57:07Z,42.805,6.029,13.3013,4.59994,2469.923,2019-12-01T07:57:36Z
2019-12-01T06:00:10Z,42.805,6.029,13.3013,4.60014,2469.993,2019-12-01T08:00:39Z
2019-12-01T06:03:13Z,42.805,6.029,13.2993,4.59988,2469.923,2019-12-01T08:03:42Z
2019-12-01T06:06:16Z,42.805,6.029,13.2994,4.60005,2469.96,2019-12-01T08:06:45Z
2019-12-01T06:09:20Z,42.805,6.029,13.2997,4.60040,2469.97,2019-12-01T08:09:49Z
2019-12-01T06:12:23Z,42.805,6.029,13.3006,4.60022,2469.97,2019-12-01T08:12:52Z
2019-12-01T06:15:26Z,42.805,6.029,13.3024,4.60007,2469.984,2019-12-01T08:15:55Z
2019-12-01T06:18:29Z,42.805,6.029,13.3011,4.60038,2469.937,2019-12-01T08:18:58Z
2019-12-01T06:21:32Z,42.805,6.029,13.3018,4.60054,2469.984,2019-12-01T08:22:01Z
2019-12-01T06:24:36Z,42.805,6.029,13.3031,4.60007,2469.97,2019-12-01T08:25:05Z
2019-12-01T06:27:39Z,42.805,6.029,13.2995,4.60019,2469.97,2019-12-01T08:28:08Z
2019-12-01T06:30:42Z,42.805,6.029,13.3022,4.60023,2470.007,2019-12-01T08:31:11Z
2019-12-01T06:33:45Z,42.805,6.029,13.3009,4.60017,2469.947,2019-12-01T08:34:14Z
2019-12-01T06:36:48Z,42.805,6.029,13.3014,4.60025,2469.984,2019-12-01T08:37:17Z
2019-12-01T06:39:52Z,42.805,6.029,13.2996,4.60021,2470.007,2019-12-01T08:40:21Z
2019-12-01T06:42:55Z,42.805,6.029,13.2996,4.60021,2469.984,2019-12-01T08:43:24Z
2019-12-01T06:45:58Z,42.805,6.029,13.3007,4.60021,2470.007,2019-12-01T08:46:27Z
2019-12-01T06:49:01Z,42.805,6.029,13.3005,4.60036,2469.984,2019-12-01T08:49:30Z
2019-12-01T06:52:05Z,42.805,6.029,13.3015,4.60033,2470.03,2019-12-01T08:52:34Z
2019-12-01T06:55:08Z,42.805,6.029,13.3031,4.60019,2469.997,2019-12-01T08:55:37Z
2019-12-01T06:58:11Z,42.805,6.029,13.2991,4.60039,2470.017,2019-12-01T08:58:40Z
2019-12-01T07:01:15Z,42.805,6.029,13.3000,4.60015,2469.993,2019-12-01T09:01:44Z
2019-12-01T07:04:18Z,42.805,6.029,13.3001,4.59999,2470.017,2019-12-01T09:04:47Z
2019-12-01T07:07:21Z,42.805,6.029,13.3001,4.60020,2470.007,2019-12-01T09:07:50Z
2019-12-01T07:10:24Z,42.805,6.029,13.2998,4.59988,2470.017,2019-12-01T09:10:53Z
2019-12-01T07:13:27Z,42.805,6.029,13.2978,4.59989,2470.03,2019-12-01T09:13:56Z
2019-12-01T07:16:31Z,42.805,6.029,13.2994,4.60028,2470.063,2019-12-01T09:17:00Z
2019-12-01T07:19:34Z,42.805,6.029,13.2997,4.60014,2470.04,2019-12-01T09:20:03Z
2019-12-01T07:22:37Z,42.805,6.029,13.3003,4.60024,2470.03,2019-12-01T09:23:06Z
2019-12-01T07:25:40Z,42.805,6.029,13.2995,4.60005,2470.03,2019-12-01T09:26:09Z
2019-12-01T07:28:43Z,42.805,6.029,13.3004,4.60023,2470.077,2019-12-01T09:29:12Z
2019-12-01T07:31:47Z,42.805,6.029,13.3010,4.60007,2470.03,2019-12-01T09:32:16Z
2019-12-01T07:34:50Z,42.805,6.029,13.3001,4.60037,2470.063,2019-12-01T09:35:19Z
2019-12-01T07:37:53Z,42.805,6.029,13.3024,4.60021,2470.053,2019-12-01T09:38:22Z
2019-12-01T07:40:56Z,42.805,6.029,13.3002,4.60003,2470.017,2019-12-01T09:41:25Z
2019-12-01T07:43:59Z,42.805,6.029,13.2986,4.60011,2470.04,2019-12-01T09:44:28Z
2019-12-01T07:47:03Z,42.805,6.029,13.2978,4.60010,2470.063,2019-12-01T09:47:32Z
2019-12-01T07:50:06Z,42.805,6.029,13.2991,4.60006,2470.017,2019-12-01T09:50:35Z
2019-12-01T07:53:09Z,42.805,6.029,13.2998,4.60019,2470.077,2019-12-01T09:53:38Z
2019-12-01T07:56:12Z,42.805,6.029,13.2992,4.60009,2470.077,2019-12-01T09:56:41Z
2019-12-01T07:59:15Z,42.805,6.029,13.3024,4.59994,2470.063,2019-12-01T09:59:44Z
2019-12-01T08:02:19Z,42.805,6.029,13.3001,4.59999,2470.063,2019-12-01T10:02:48Z
2019-12-01T08:05:22Z,42.805,6.029,13.2998,4.59996,2470.087,2019-12-01T10:05:51Z
2019-12-01T08:08:25Z,42.805,6.029,13.2997,4.60016,2470.087,2019-12-01T10:08:54Z
2019-12-01T08:11:28Z,42.805,6.029,13.2998,4.60000,2470.1,2019-12-01T10:11:57Z
2019-12-01T08:14:32Z,42.805,6.029,13.2990,4.60002,2470.063,2019-12-01T10:15:01Z
2019-12-01T08:17:35Z,42.805,6.029,13.3026,4.60037,2470.063,2019-12-01T10:18:04Z
2019-12-01T08:20:38Z,42.805,6.029,13.3018,4.60021,2470.087,2019-12-01T10:21:07Z
2019-12-01T08:23:41Z,42.805,6.029,13.2989,4.60014,2470.1,2019-12-01T10:24:10Z
2019-12-01T08:26:44Z,42.805,6.029,13.2990,4.60002,2470.124,2019-12-01T10:27:13Z
2019-12-01T08:29:48Z,42.805,6.029,13.2983,4.60009,2470.087,2019-12-01T10:30:17Z
2019-12-01T08:32:51Z,42.805,6.029,13.2998,4.60009,2470.11,2019-12-01T10:33:20Z
2019-12-01T08:35:54Z,42.805,6.029,13.2985,4.60001,2470.133,2019-12-01T10:36:23Z
2019-12-01T08:38:57Z,42.805,6.029,13.2989,4.59995,2470.087,2019-12-01T10:39:26Z
2019-12-01T08:42:01Z,42.805,6.029,13.2993,4.60013,2470.1,2019-12-01T10:42:30Z
2019-12-01T08:45:04Z,42.805,6.029,13.2996,4.59988,2470.1,2019-12-01T10:45:33Z
2019-12-01T08:48:07Z,42.805,6.029,13.2997,4.60022,2470.087,2019-12-01T10:48:36Z
2019-12-01T08:51:10Z,42.805,6.029,13.3001,4.60027,2470.124,2019-12-01T10:51:39Z
2019-12-01T08:54:13Z,42.805,6.029,13.3008,4.59989,2470.11,2019-12-01T10:54:42Z
2019-12-01T08:57:17Z,42.805,6.029,13.2993,4.60010,2470.124,2019-12-01T10:57:46Z
2019-12-01T09:00:20Z,42.805,6.029,13.3006,4.60016,2470.147,2019-12-01T11:00:49Z
2019-12-01T09:03:23Z,42.805,6.029,13.2997,4.60010,2470.156,2019-12-01T11:03:52Z
2019-12-01T09:06:26Z,42.805,6.029,13.3006,4.60005,2470.147,2019-12-01T11:06:55Z
2019-12-01T09:09:29Z,42.805,6.029,13.3002,4.60003,2470.147,2019-12-01T11:09:58Z
2019-12-01T09:12:32Z,42.805,6.029,13.3010,4.60010,2470.147,2019-12-01T11:13:01Z
2019-12-01T09:15:36Z,42.805,6.029,13.3006,4.59995,2470.156,2019-12-01T11:16:05Z
2019-12-01T09:18:39Z,42.805,6.029,13.3004,4.60009,2470.133,2019-12-01T11:19:08Z
2019-12-01T09:21:42Z,42.805,6.029,13.2995,4.60013,2470.147,2019-12-01T11:22:11Z
2019-12-01T09:24:45Z,42.805,6.029,13.3000,4.60021,2470.147,2019-12-01T11:25:14Z
2019-12-01T09:27:48Z,42.805,6.029,13.2981,4.60029,2470.133,2019-12-01T11:28:17Z
2019-12-01T09:30:52Z,42.805,6.029,13.2990,4.60006,2470.171,2019-12-01T11:31:21Z
2019-12-01T09:33:55Z,42.805,6.029,13.2986,4.60019,2470.133,2019-12-01T11:34:24Z
2019-12-01T09:36:58Z,42.805,6.029,13.2994,4.60019,2470.171,2019-12-01T11:37:27Z
2019-12-01T09:40:01Z,42.805,6.029,13.2995,4.59998,2470.147,2019-12-01T11:40:30Z
2019-12-01T09:43:04Z,42.805,6.029,13.2991,4.59997,2470.156,2019-12-01T11:43:33Z
2019-12-01T09:46:08Z,42.805,6.029,13.2986,4.60006,2470.147,2019-12-01T11:46:37Z
2019-12-01T09:49:11Z,42.805,6.029,13.2983,4.60009,2470.11,2019-12-01T11:49:40Z
2019-12-01T09:52:14Z,42.805,6.029,13.2998,4.60009,2470.156,2019-12-01T11:52:43Z
2019-12-01T09:55:17Z,42.805,6.029,13.3003,4.60011,2470.18,2019-12-01T11:55:46Z
2019-12-01T09:58:20Z,42.805,6.029,13.2991,4.60019,2470.156,2019-12-01T11:58:49Z
2019-12-01T10:01:24Z,42.805,6.029,13.3000,4.60010,2470.171,2019-12-01T12:01:53Z
2019-12-01T10:04:27Z,42.805,6.029,13.3016,4.59999,2470.18,2019-12-01T12:04:56Z
2019-12-01T10:07:30Z,42.805,6.029,13.2997,4.60000,2470.156,2019-12-01T12:07:59Z
2019-12-01T10:10:33Z,42.805,6.029,13.2991,4.60006,2470.156,2019-12-01T12:11:02Z
2019-12-01T10:13:36Z,42.805,6.029,13.2986,4.60009,2470.194,2019-12-01T12:14:05Z
2019-12-01T10:16:40Z,42.805,6.029,13.2990,4.59993,2470.133,2019-12-01T12:17:09Z
2019-12-01T10:19:43Z,42.805,6.029,13.2984,4.59983,2470.156,2019-12-01T12:20:12Z
2019-12-01T10:22:46Z,42.805,6.029,13.2985,4.60007,2470.171,2019-12-01T12:23:15Z
2019-12-01T10:25:49Z,42.805,6.029,13.3006,4.59991,2470.194,2019-12-01T12:26:18Z
2019-12-01T10:28:52Z,42.805,6.029,13.2988,4.59991,2470.133,2019-12-01T12:29:21Z
2019-12-01T10:31:56Z,42.805,6.029,13.2989,4.60015,2470.194,2019-12-01T12:32:25Z
2019-12-01T10:34:59Z,42.805,6.029,13.2992,4.59997,2470.147,2019-12-01T12:35:28Z
2019-12-01T10:38:02Z,42.805,6.029,13.2984,4.59999,2470.156,2019-12-01T12:38:31Z
2019-12-01T10:41:05Z,42.805,6.029,13.2986,4.59982,2470.124,2019-12-01T12:41:34Z
2019-12-01T10:44:08Z,42.805,6.029,13.3000,4.59986,2470.171,2019-12-01T12:44:37Z
2019-12-01T10:47:12Z,42.805,6.029,13.2982,4.59996,2470.18,2019-12-01T12:47:41Z
2019-12-01T10:50:15Z,42.805,6.029,13.2986,4.59991,2470.133,2019-12-01T12:50:44Z
2019-12-01T10:53:18Z,42.805,6.029,13.2988,4.59996,2470.156,2019-12-01T12:53:47Z
2019-12-01T10:56:21Z,42.805,6.029,13.2984,4.59996,2470.133,2019-12-01T12:56:50Z
2019-12-01T10:59:24Z,42.805,6.029,13.2987,4.59988,2470.133,2019-12-01T12:59:53Z
2019-12-01T11:02:27Z,42.805,6.029,13.2978,4.60009,2470.156,2019-12-01T13:02:56Z
2019-12-01T11:05:31Z,42.805,6.029,13.2991,4.60001,2470.147,2019-12-01T13:06:00Z
2019-12-01T11:08:34Z,42.805,6.029,13.2982,4.60001,2470.156,2019-12-01T13:09:03Z
2019-12-01T11:11:37Z,42.805,6.029,13.2989,4.59996,2470.171,2019-12-01T13:12:06Z
2019-12-01T11:14:40Z,42.805,6.029,13.2993,4.60001,2470.1,2019-12-01T13:15:09Z
2019-12-01T11:17:43Z,42.805,6.029,13.2991,4.59991,2470.124,2019-12-01T13:18:12Z
2019-12-01T11:20:47Z,42.805,6.029,13.2999,4.59986,2470.133,2019-12-01T13:21:16Z
2019-12-01T11:23:50Z,42.805,6.029,13.2989,4.60005,2470.156,2019-12-01T13:24:19Z
2019-12-01T11:26:53Z,42.805,6.029,13.2996,4.59985,2470.133,2019-12-01T13:27:22Z
2019-12-01T11:29:56Z,42.805,6.029,13.2987,4.59991,2470.147,2019-12-01T13:30:25Z
2019-12-01T11:32:59Z,42.805,6.029,13.2996,4.59993,2470.133,2019-12-01T13:33:28Z
2019-12-01T11:36:03Z,42.805,6.029,13.2990,4.59982,2470.156,2019-12-01T13:36:32Z
2019-12-01T11:39:06Z,42.805,6.029,13.2986,4.59996,2470.156,2019-12-01T13:39:35Z
2019-12-01T11:42:09Z,42.805,6.029,13.2988,4.59988,2470.133,2019-12-01T13:42:38Z
2019-12-01T11:45:12Z,42.805,6.029,13.2985,4.60002,2470.133,2019-12-01T13:45:41Z
2019-12-01T11:48:15Z,42.805,6.029,13.2995,4.59997,2470.133,2019-12-01T13:48:44Z
2019-12-01T11:51:19Z,42.805,6.029,13.2980,4.60002,2470.133,2019-12-01T13:51:48Z
2019-12-01T11:54:22Z,42.805,6.029,13.2995,4.59983,2470.147,2019-12-01T13:54:51Z
2019-12-01T11:57:25Z,42.805,6.029,13.2991,4.60000,2470.147,2019-12-01T13:57:54Z
2019-12-01T12:00:28Z,42.805,6.029,13.2985,4.59986,2470.133,2019-12-01T14:00:57Z
2019-12-01T12:03:31Z,42.805,6.029,13.2981,4.59994,2470.133,2019-12-01T14:04:00Z
2019-12-01T12:06:35Z,42.805,6.029,13.2986,4.59989,2470.194,2019-12-01T14:07:04Z
2019-12-01T12:09:38Z,42.805,6.029,13.2980,4.59988,2470.147,2019-12-01T14:10:07Z
2019-12-01T12:12:41Z,42.805,6.029,13.2998,4.59984,2470.171,2019-12-01T14:13:10Z
2019-12-01T12:15:44Z,42.805,6.029,13.2993,4.59997,2470.133,2019-12-01T14:16:13Z
2019-12-01T12:18:47Z,42.805,6.029,13.2995,4.60006,2470.133,2019-12-01T14:19:16Z
2019-12-01T12:21:50Z,42.805,6.029,13.2979,4.59994,2470.11,2019-12-01T14:22:19Z
2019-12-01T12:24:54Z,42.805,6.029,13.2994,4.59990,2470.133,2019-12-01T14:25:23Z
2019-12-01T12:27:57Z,42.805,6.029,13.2993,4.59983,2470.124,2019-12-01T14:28:26Z
2019-12-01T12:31:00Z,42.805,6.029,13.2981,4.59994,2470.124,2019-12-01T14:31:29Z
2019-12-01T12:34:03Z,42.805,6.029,13.2982,4.60002,2470.087,2019-12-01T14:34:32Z
2019-12-01T12:37:07Z,42.805,6.029,13.2987,4.59990,2470.124,2019-12-01T14:37:36Z
2019-12-01T12:40:10Z,42.805,6.029,13.2982,4.59994,2470.11,2019-12-01T14:40:39Z
2019-12-01T12:43:13Z,42.805,6.029,13.2983,4.59981,2470.124,2019-12-01T14:43:42Z
2019-12-01T12:46:16Z,42.805,6.029,13.2986,4.59984,2470.124,2019-12-01T14:46:45Z
2019-12-01T12:49:19Z,42.805,6.029,13.2993,4.59990,2470.133,2019-12-01T14:49:48Z
2019-12-01T12:52:23Z,42.805,6.029,13.2996,4.59989,2470.11,2019-12-01T14:52:52Z
2019-12-01T12:55:26Z,42.805,6.029,13.2986,4.59992,2470.1,2019-12-01T14:55:55Z
2019-12-01T12:58:29Z,42.805,6.029,13.2990,4.59991,2470.133,2019-12-01T14:58:58Z
2019-12-01T13:01:32Z,42.805,6.029,13.2986,4.59999,2470.124,2019-12-01T15:02:01Z
2019-12-01T13:04:35Z,42.805,6.029,13.2997,4.59988,2470.1,2019-12-01T15:05:04Z
2019-12-01T13:07:38Z,42.805,6.029,13.2985,4.59981,2470.1,2019-12-01T15:08:07Z
2019-12-01T13:10:42Z,42.805,6.029,13.2982,4.59985,2470.11,2019-12-01T15:11:11Z
2019-12-01T13:13:45Z,42.805,6.029,13.2991,4.59988,2470.124,2019-12-01T15:14:14Z
2019-12-01T13:16:48Z,42.805,6.029,13.2989,4.59991,2470.11,2019-12-01T15:17:17Z
2019-12-01T13:19:51Z,42.805,6.029,13.2992,4.59983,2470.11,2019-12-01T15:20:20Z
2019-12-01T13:22:54Z,42.805,6.029,13.2987,4.59985,2470.124,2019-12-01T15:23:23Z
2019-12-01T13:25:57Z,42.805,6.029,13.2988,4.59992,2470.124,2019-12-01T15:26:26Z
2019-12-01T13:29:01Z,42.805,6.029,13.2990,4.59992,2470.11,2019-12-01T15:29:30Z
2019-12-01T13:32:04Z,42.805,6.029,13.2993,4.59992,2470.087,2019-12-01T15:32:33Z
2019-12-01T13:35:07Z,42.805,6.029,13.2993,4.59991,2470.1,2019-12-01T15:35:36Z
2019-12-01T13:38:10Z,42.805,6.029,13.2993,4.59988,2470.11,2019-12-01T15:38:39Z
2019-12-01T13:41:13Z,42.805,6.029,13.2992,4.59983,2470.087,2019-12-01T15:41:42Z
2019-12-01T13:44:17Z,42.805,6.029,13.2990,4.59992,2470.1,2019-12-01T15:44:46Z
2019-12-01T13:47:20Z,42.805,6.029,13.2990,4.59985,2470.077,2019-12-01T15:47:49Z
2019-12-01T13:50:23Z,42.805,6.029,13.2991,4.59996,2470.1,2019-12-01T15:50:52Z
2019-12-01T13:53:26Z,42.805,6.029,13.2996,4.59988,2470.1,2019-12-01T15:53:55Z
2019-12-01T13:56:29Z,42.805,6.029,13.2982,4.59982,2470.087,2019-12-01T15:56:58Z
2019-12-01T13:59:33Z,42.805,6.029,13.2987,4.59995,2470.087,2019-12-01T16:00:02Z
2019-12-01T14:02:36Z,42.805,6.029,13.2991,4.59992,2470.063,2019-12-01T16:03:05Z
2019-12-01T14:05:39Z,42.805,6.029,13.2990,4.59980,2470.087,2019-12-01T16:06:08Z
2019-12-01T14:08:42Z,42.805,6.029,13.2990,4.59983,2470.077,2019-12-01T16:09:11Z
2019-12-01T14:11:45Z,42.805,6.029,13.2984,4.59987,2470.087,2019-12-01T16:12:14Z
2019-12-01T14:14:49Z,42.805,6.029,13.2986,4.59996,2470.04,2019-12-01T16:15:18Z
2019-12-01T14:17:52Z,42.805,6.029,13.2983,4.59991,2470.087,2019-12-01T16:18:21Z
2019-12-01T14:20:55Z,42.805,6.029,13.2991,4.59991,2470.1,2019-12-01T16:21:24Z
2019-12-01T14:23:58Z,42.805,6.029,13.2986,4.59986,2470.1,2019-12-01T16:24:27Z
2019-12-01T14:27:01Z,42.805,6.029,13.2997,4.59991,2470.1,2019-12-01T16:27:30Z
2019-12-01T14:30:05Z,42.805,6.029,13.2993,4.59988,2470.063,2019-12-01T16:30:34Z
2019-12-01T14:33:08Z,42.805,6.029,13.2987,4.59996,2470.1,2019-12-01T16:33:37Z
2019-12-01T14:36:11Z,42.805,6.029,13.2983,4.59986,2470.087,2019-12-01T16:36:40Z
2019-12-01T14:39:14Z,42.805,6.029,13.2996,4.59991,2470.063,2019-12-01T16:39:43Z
2019-12-01T14:42:17Z,42.805,6.029,13.2994,4.59989,2470.063,2019-12-01T16:42:46Z
2019-12-01T14:45:21Z,42.805,6.029,13.2994,4.59991,2470.1,2019-12-01T16:45:50Z
2019-12-01T14:48:24Z,42.805,6.029,13.2988,4.59990,2470.1,2019-12-01T16:48:53Z
2019-12-01T14:51:27Z,42.805,6.029,13.2990,4.59992,2470.077,2019-12-01T16:51:56Z
2019-12-01T14:54:30Z,42.805,6.029,13.2993,4.59986,2470.063,2019-12-01T16:54:59Z
2019-12-01T14:57:33Z,42.805,6.029,13.2987,4.60011,2470.077,2019-12-01T16:58:02Z
2019-12-01T15:00:36Z,42.805,6.029,13.2990,4.59983,2470.077,2019-12-01T17:01:06Z
2019-12-01T15:03:40Z,42.805,6.029,13.2990,4.59987,2470.063,2019-12-01T17:04:09Z